Meteo Giornale » Osservazioni meteo Gran Bretagna » Brize Norton

ore: 14:50 - Osservazioni Meteo Brize Norton
Lat. 51° 45' N Lon. 1° 35' W Alt. 88 metri s.l.m.

molto_nuvoloso Europe/London

20 °C

Molto Nuvoloso

Temp. 24 Ore

8 °C

21 °C

Nord-Ovest

7.4 Km/h

Dew point 10 °C

Umidità 52 %

Visibilità  10 Km

Il sole sorge alle ore 06:49

Il sole tramonta alle ore 19:08

Data e Ora Cielo e Fenomeni T °C DP °C Um. % Pres. hPa Vis. km Vento km/h
Oggi h: 14:50 molto_nuvoloso Molto Nuvoloso 20 10 52 1030 10 NO 7.4
Oggi h: 14:23 molto_nuvoloso Molto Nuvoloso 20 10 52 1031 10 NO 9.3
Oggi h: 13:50 molto_nuvoloso Molto Nuvoloso 19 10 55 1031 10 N 5.5
Oggi h: 13:20 molto_nuvoloso Molto Nuvoloso 20 11 56 1031 10 N 5.5
Oggi h: 12:50 molto_nuvoloso Molto Nuvoloso 19 11 59 1031 10 N 5.5
Oggi h: 12:20 molto_nuvoloso Molto Nuvoloso 19 11 59 1031 10 N 3.7
Oggi h: 11:50 molto_nuvoloso Molto Nuvoloso 19 11 59 1031 10 N 5.5
Oggi h: 11:25 molto_nuvoloso Molto Nuvoloso 19 12 63 1031 10 N 5.5
Oggi h: 10:50 molto_nuvoloso Molto Nuvoloso 17 11 67 1031 10 N 1.8
Oggi h: 10:22 molto_nuvoloso Molto Nuvoloso 16 11 72 1031 10 N 3.7
Oggi h: 09:50 molto_nuvoloso Molto Nuvoloso 14 11 82 1031 10 N 5.5
Oggi h: 09:22 molto_nuvoloso Molto Nuvoloso 13 11 87 1031 10 N 5.5
Oggi h: 08:50 molto_nuvoloso Molto Nuvoloso 12 10 87 1031 10 N 5.5
Oggi h: 08:23 molto_nuvoloso Molto Nuvoloso 12 10 87 1030 10 N 3.7
Oggi h: 07:50 molto_nuvoloso Molto Nuvoloso 10 10 100 1030 10 N 3.7
Oggi h: 06:50 poco_nuvoloso Poco Nuvoloso 8 7 93 1030 10 N 3.7
Oggi h: 06:20 nuvoloso Nuvoloso 8 7 93 1030 10 N 3.7
Oggi h: 05:50 sereno Sereno 8 7 93 1030 10 N 1.8
Oggi h: 05:20 sereno Sereno 8 7 93 1029 10 N 5.5
Oggi h: 04:50 sereno Sereno 8 7 93 1029 10 N 3.7
Oggi h: 04:20 sereno Sereno 9 7 87 1029 10 N 3.7
Oggi h: 03:50 sereno Sereno 9 7 87 1029 10 N 3.7
Oggi h: 03:20 sereno Sereno 9 7 87 1029 10 N 5.5
Oggi h: 02:50 sereno Sereno 10 8 87 1029 10 O 7.4
Oggi h: 02:20 sereno Sereno 10 8 87 1029 10 O 7.4
Oggi h: 01:50 sereno Sereno 10 8 87 1029 10 N 1.8
Oggi h: 01:20 sereno Sereno 11 8 81 1029 10 N 0
Oggi h: 00:50 sereno Sereno 11 8 81 1029 10 N 1.8
Oggi h: 00:20 sereno Sereno 12 8 76 1029 10 N 3.7
Ieri h: 23:50 sereno Sereno 12 9 81 1028 10 N 0
Ieri h: 23:20 sereno Sereno 12 9 81 1028 10 N 1.8
Ieri h: 22:50 sereno Sereno 13 9 76 1028 10 N 0
Ieri h: 22:20 sereno Sereno 13 8 71 1028 10 N 5.5
Ieri h: 21:50 sereno Sereno 14 8 67 1027 10 NO 11.1
Ieri h: 21:20 sereno Sereno 14 8 67 1027 10 NO 11.1
Ieri h: 20:50 sereno Sereno 14 8 67 1027 10 NO 9.3
Ieri h: 20:20 sereno Sereno 15 8 62 1026 10 NO 9.3
Ieri h: 19:50 sereno Sereno 16 8 58 1026 10 NO 9.3
Ieri h: 18:50 sereno Sereno 18 6 45 1025 10 N/NO 9.3
Ieri h: 18:20 sereno Sereno 19 6 42 1025 10 N/NO 16.7
Ieri h: 17:50 sereno Sereno 20 7 42 1025 10 N/NO 16.7
Ieri h: 17:20 sereno Sereno 20 7 42 1025 10 N 14.8
Ieri h: 16:50 poco_nuvoloso Poco Nuvoloso 20 8 45 1024 10 N 13
Ieri h: 16:20 poco_nuvoloso Poco Nuvoloso 21 8 43 1024 10 N/NO 22.2
Ieri h: 15:50 poco_nuvoloso Poco Nuvoloso 21 8 43 1024 10 N 16.7